Location: Penton Mewsey
(51.2167°N, 1.5167°W)
Time: 12:29:12
(UTC+00:00)

Cosmos 2369 Rocket - Pass Details

Date: 30 March 2020
Orbit: 829 x 852 km, 71.0° (Epoch: 24 May)

Event Time Altitude Azimuth Distance (km) Brightness Sun altitude
Rises 21:15:01 0° 325° (NW) 3,429 6.7 -23.2°
Reaches altitude 10° 21:17:39 10° 317° (NW) 2,486 5.7 -23.5°
Maximum altitude 21:22:48 36° 253° (WSW) 1,311 3.4 -24.1°
Enters shadow 21:25:28 24° 205° (SSW) 1,704 3.6 -24.4°
